Islip, NY

10:15 PM EST on December 11, 2019 (GMT -0500)
Long Island Mac Arthur

Weather History for KISP - November, 2019

Change the Weather History Date:

Saturday, November 16, 2019

  Actual Average Record
Temperature  
Mean Temperature 34 °F 45 °F  
Max Temperature 41 °F 53 °F 70 °F (2001)
Min Temperature 26 °F 37 °F 17 °F (1967)
Degree Days  
Heating Degree Days 32 20  
Month to date heating degree days 372 284  
Since 1 July heating degree days 626 704  
Cooling Degree Days 0 0  
Month to date cooling degree days 0 0  
Year to date cooling degree days 985 787  
Moisture  
Dew Point 11 °F    
Average Humidity 39    
Maximum Humidity 60    
Minimum Humidity 20    
Precipitation  
Precipitation 0.00 in 0.13 in 1.15 in (1983)
Month to date precipitation 0.60 1.87  
Year to date precipitation 39.51 40.38  
Snow  
Snow 0.00 in 0.00 in - ()
Month to date snowfall 0.1 0.1  
Since 1 July snowfall 0.1 0.1  
Snow Depth 0.00 in    
Sea Level Pressure  
Sea Level Pressure 30.40 in    
Wind  
Wind Speed 12 mph ()    
Max Wind Speed 26 mph    
Max Gust Speed 35 mph    
Visibility 10.0 miles    
Events      
T = Trace of Precipitation, MM = Missing Value Source: Averaged Metar Reports

Daily Weather History Graph

Daily Weather History Graph

Search for Another Location

Airport or City:

Astronomy

Nov. 16, 2019 Rise Set
Actual Time 6:40 AM EST 4:33 PM EST
Civil Twilight 6:10 AM EST 5:03 PM EST
Nautical Twilight 5:37 AM EST 5:36 PM EST
Astronomical Twilight 5:05 AM EST 6:08 PM EST
Moon 8:02 PM EST (11/16) 10:32 AM EST (11/16)
Length of Visible Light 10h 52m
Length of Day
9h 53m
Waning Gibbous, 82% of the Moon is Illuminated
Nov 16
Waning Gibbous
Nov 19
Last Quarter
Nov 26
New
Dec 4
First Quarter
Dec 12
Full

Hourly Weather History & Observations

Time (EST) Temp. Windchill Dew Point Humidity Pressure Visibility Wind Dir Wind Speed Gust Speed Precip Events Conditions
12:56 AM 39.9 °F 33.4 °F 27.0 °F 60% 30.22 in 10.0 mi North 10.4 mph 19.6 mph N/A   Clear
1:56 AM 39.9 °F 31.4 °F 26.1 °F 58% 30.24 in 10.0 mi North 16.1 mph 20.7 mph N/A   Clear
2:56 AM 39.0 °F 29.3 °F 26.1 °F 60% 30.25 in 10.0 mi North 19.6 mph 25.3 mph N/A   Clear
3:56 AM 39.0 °F 30.6 °F 24.1 °F 55% 30.28 in 10.0 mi North 15.0 mph 23.0 mph N/A   Clear
4:56 AM 37.9 °F 29.2 °F 21.9 °F 53% 30.31 in 10.0 mi NNE 15.0 mph 27.6 mph N/A   Scattered Clouds
5:56 AM 36.0 °F 26.3 °F 18.0 °F 48% 30.36 in 10.0 mi NNE 16.1 mph - N/A   Partly Cloudy
6:56 AM 33.1 °F 22.2 °F 9.0 °F 37% 30.41 in 10.0 mi NNE 17.3 mph 26.5 mph N/A   Partly Cloudy
7:56 AM 34.0 °F 22.4 °F 9.0 °F 35% 30.43 in 10.0 mi NNE 20.7 mph 26.5 mph N/A   Partly Cloudy
8:56 AM 35.1 °F 24.1 °F 9.0 °F 34% 30.44 in 10.0 mi NE 19.6 mph 32.2 mph N/A   Partly Cloudy
9:56 AM 36.0 °F 25.3 °F 8.1 °F 31% 30.45 in 10.0 mi NE 19.6 mph 32.2 mph N/A   Partly Cloudy
10:56 AM 37.0 °F 27.0 °F 6.1 °F 28% 30.45 in 10.0 mi NE 18.4 mph 31.1 mph N/A   Partly Cloudy
11:56 AM 39.0 °F 29.3 °F 6.1 °F 26% 30.43 in 10.0 mi NE 19.6 mph 24.2 mph N/A   Partly Cloudy
12:56 PM 39.9 °F 30.2 °F 3.9 °F 22% 30.43 in 10.0 mi NNE 20.7 mph 28.8 mph N/A   Partly Cloudy
1:56 PM 41.0 °F 31.6 °F 3.9 °F 21% 30.42 in 10.0 mi NNE 20.7 mph 25.3 mph N/A   Partly Cloudy
2:56 PM 39.9 °F 32.5 °F 1.0 °F 20% 30.43 in 10.0 mi NE 12.7 mph 23.0 mph N/A   Partly Cloudy
3:56 PM 37.9 °F 32.1 °F 7.0 °F 28% 30.43 in 10.0 mi NNE 8.1 mph - N/A   Partly Cloudy
4:56 PM 34.0 °F 28.8 °F 5.0 °F 30% 30.43 in 10.0 mi NNE 5.8 mph - N/A   Partly Cloudy
5:56 PM 32.0 °F 27.5 °F 6.1 °F 34% 30.44 in 10.0 mi NNE 4.6 mph - N/A   Partly Cloudy
6:56 PM 28.9 °F 22.8 °F 7.0 °F 40% 30.45 in 10.0 mi NNE 5.8 mph - N/A   Partly Cloudy
7:56 PM 30.0 °F 26.5 °F 6.1 °F 36% 30.45 in 10.0 mi NE 3.5 mph - N/A   Partly Cloudy
8:56 PM 27.0 °F 21.6 °F 10.0 °F 49% 30.45 in 10.0 mi NE 4.6 mph - N/A   Clear
9:56 PM 30.0 °F 24.1 °F 10.0 °F 43% 30.45 in 10.0 mi ENE 5.8 mph - N/A   Clear
10:56 PM 30.0 °F 22.4 °F 8.1 °F 40% 30.43 in 10.0 mi NE 8.1 mph - N/A   Clear
11:56 PM 28.0 °F 20.8 °F 12.9 °F 53% 30.43 in 10.0 mi NNE 6.9 mph - N/A   Clear